Weather History for Eindhoven, Netherlands

Change the Weather History Date:

Wednesday, February 20, 2013

  Actual Average Record
Temperature  
Mean Temperature 30 °F -  
Max Temperature 35 °F 48 °F 59 °F (1998)
Min Temperature 24 °F 34 °F 24 °F (2012)
Degree Days  
Heating Degree Days 36    
Moisture  
Dew Point 25 °F    
Average Humidity 79    
Maximum Humidity 100    
Minimum Humidity 60    
Precipitation  
Precipitation 0.00 in - - ()
Sea Level Pressure  
Sea Level Pressure 30.25 in    
Wind  
Wind Speed 9 mph ()    
Max Wind Speed 14 mph    
Max Gust Speed -    
Visibility 6.8 miles    
Events      
Averages and records for this station are not official NWS values.
T = Trace of Precipitation, MM = Missing Value Source: Averaged Metar Reports

Daily Weather History Graph

Daily Weather History Graph

Search for Another Location

Airport:

Trip Planner

Search our weather history database for the weather conditions in past years. The results will help you decide how hot, cold, wet, or windy it might be!

Date:

Astronomy

Feb. 20, 2013 Rise Set
Actual Time 7:42 AM CET 6:03 PM CET
Civil Twilight 7:08 AM CET 6:37 PM CET
Nautical Twilight 6:29 AM CET 7:15 PM CET
Astronomical Twilight 5:50 AM CET 7:54 PM CET
Moon 12:48 PM CET (2/20) 4:12 AM CET (2/20)
Length of Visible Light 11h 28m
Length of Day
10h 20m
Waxing Gibbous, 74% of the Moon is Illuminated
Feb 20
Waxing Gibbous
Feb 25
Full
Mar 4
Last Quarter
Mar 11
New
Mar 19
First Quarter

Hourly Weather History & Observations

Time (CET) Temp. Windchill Dew Point Humidity Pressure Visibility Wind Dir Wind Speed Gust Speed Precip Events Conditions
12:25 AM 35.6 °F 28.0 °F 32.0 °F 87% 30.12 in 6.2 mi ENE 10.4 mph - N/A   Overcast
1:25 AM 33.8 °F 26.4 °F 28.4 °F 81% 30.12 in 6.2 mi ENE 9.2 mph - N/A   Unknown
1:55 AM 32.0 °F 25.6 °F 28.4 °F 87% 30.15 in 6.2 mi NE 6.9 mph - N/A   Unknown
2:25 AM 32.0 °F 24.8 °F 28.4 °F 87% 30.15 in 6.2 mi NE 8.1 mph - N/A   Unknown
2:55 AM 30.2 °F 22.6 °F 30.2 °F 100% 30.15 in 5.6 mi NE 8.1 mph - N/A   Mist
3:25 AM 32.0 °F 24.2 °F 30.2 °F 93% 30.15 in 6.2 mi NE 9.2 mph - N/A   Unknown
3:55 AM 32.0 °F 24.2 °F 30.2 °F 93% 30.18 in 6.2 mi NE 9.2 mph - N/A   Unknown
4:00 AM 31 °F - 28 °F 86% 30.19 in 8 mi NE 8.9 mph - -  
4:25 AM 30.2 °F 21.3 °F 28.4 °F 93% 30.18 in 6.2 mi NE 10.4 mph - N/A   Unknown
4:55 AM 30.2 °F 21.9 °F 28.4 °F 93% 30.18 in 6.2 mi NE 9.2 mph - N/A   Unknown
5:25 AM 30.2 °F 21.9 °F 28.4 °F 93% 30.18 in 6.2 mi NE 9.2 mph - N/A   Partly Cloudy
5:55 AM 30.2 °F 21.9 °F 26.6 °F 86% 30.21 in 6.2 mi NE 9.2 mph - N/A   Unknown
6:25 AM 30.2 °F 22.6 °F 28.4 °F 93% 30.21 in 6.2 mi ENE 8.1 mph - N/A   Unknown
6:34 AM 30.2 °F 22.6 °F 26.6 °F 86% 30.21 in 6.2 mi NE 8.1 mph - N/A   Partly Cloudy
6:55 AM 30.2 °F 21.9 °F 26.6 °F 86% 30.21 in 6.2 mi ENE 9.2 mph - N/A   Unknown
7:00 AM 31 °F - 27 °F 79% 30.23 in 12 mi ENE 11.2 mph - -   Partly Cloudy
7:25 AM 30.2 °F 22.6 °F 26.6 °F 86% 30.21 in 6.2 mi NE 8.1 mph - N/A   Unknown
7:55 AM 30.2 °F 21.9 °F 26.6 °F 86% 30.24 in 6.2 mi ENE 9.2 mph - N/A   Unknown
8:25 AM 30.2 °F 22.6 °F 26.6 °F 86% 30.24 in 6.2 mi NE 8.1 mph - N/A   Unknown
8:55 AM 30.2 °F 21.3 °F 26.6 °F 86% 30.24 in 6.2 mi ENE 10.4 mph - N/A   Unknown
9:25 AM 32.0 °F 23.0 °F 26.6 °F 80% 30.27 in 6.2 mi ENE 11.5 mph - N/A   Partly Cloudy
9:55 AM 32.0 °F 23.0 °F 26.6 °F 80% 30.27 in 6.2 mi ENE 11.5 mph - N/A   Unknown
10:00 AM 32 °F - 28 °F 77% 30.29 in 16 mi ENE 11.2 mph - -   Scattered Clouds
10:25 AM 32.0 °F 22.1 °F 26.6 °F 80% 30.27 in 6.2 mi ENE 13.8 mph - N/A   Partly Cloudy
10:55 AM 33.8 °F 25.8 °F 28.4 °F 81% 30.27 in 6.2 mi ENE 10.4 mph - N/A   Partly Cloudy
11:25 AM 33.8 °F 25.3 °F 28.4 °F 81% 30.27 in 6.2 mi ENE 11.5 mph - N/A   Partly Cloudy
11:55 AM 33.8 °F 25.3 °F 26.6 °F 75% 30.27 in 6.2 mi ENE 11.5 mph - N/A   Mostly Cloudy
12:25 PM 33.8 °F 25.3 °F 26.6 °F 75% 30.27 in 6.2 mi NE 11.5 mph - N/A   Scattered Clouds
12:55 PM 33.8 °F 25.8 °F 24.8 °F 70% 30.27 in 6.2 mi ENE 10.4 mph - N/A   Scattered Clouds
1:00 PM 34 °F - 25 °F 60% 30.30 in 18 mi ENE 11.2 mph - -   Partly Cloudy
1:25 PM 35.6 °F 27.5 °F 24.8 °F 65% 30.27 in 6.2 mi ENE 11.5 mph - N/A   Mostly Cloudy
1:55 PM 33.8 °F 25.3 °F 23.0 °F 65% 30.27 in 6.2 mi ENE 11.5 mph - N/A   Overcast
2:25 PM 33.8 °F 25.3 °F 24.8 °F 70% 30.27 in 6.2 mi NE 11.5 mph - N/A   Overcast
2:55 PM 35.6 °F 28.6 °F 24.8 °F 65% 30.27 in 6.2 mi ENE 9.2 mph - N/A   Overcast
3:25 PM 35.6 °F 27.5 °F 23.0 °F 60% 30.27 in 6.2 mi NE 11.5 mph - N/A   Overcast
3:39 PM 33.8 °F 24.8 °F 23.0 °F 65% 30.27 in 6.2 mi NE 12.7 mph - N/A   Overcast
3:55 PM 33.8 °F 24.3 °F 24.8 °F 70% 30.27 in 6.2 mi NE 13.8 mph - N/A   Overcast
4:25 PM 33.8 °F 24.3 °F 21.2 °F 60% 30.27 in 6.2 mi ENE 13.8 mph - N/A   Overcast
4:55 PM 33.8 °F 25.3 °F 23.0 °F 65% 30.27 in 6.2 mi ENE 11.5 mph - N/A   Overcast
5:25 PM 33.8 °F 25.8 °F 21.2 °F 60% 30.27 in 6.2 mi NE 10.4 mph - N/A   Overcast
5:55 PM 33.8 °F 25.8 °F 23.0 °F 65% 30.27 in 6.2 mi ENE 10.4 mph - N/A   Overcast
6:25 PM 32.0 °F 25.6 °F 23.0 °F 69% 30.27 in 6.2 mi ENE 6.9 mph - N/A   Unknown
6:55 PM 32.0 °F 24.2 °F 23.0 °F 69% 30.27 in 6.2 mi NE 9.2 mph - N/A   Unknown
7:00 PM 31 °F - 22 °F 60% 30.30 in 28 mi NE 8.9 mph - -   Partly Cloudy
7:25 PM 28.4 °F 21.2 °F 21.2 °F 74% 30.30 in 6.2 mi NE 6.9 mph - N/A   Unknown
7:55 PM 26.6 °F 19.1 °F 21.2 °F 80% 30.27 in 6.2 mi NE 6.9 mph - N/A   Unknown
8:25 PM 28.4 °F 20.4 °F 23.0 °F 80% 30.27 in 6.2 mi NE 8.1 mph - N/A   Unknown
8:55 PM 26.6 °F 18.2 °F 23.0 °F 86% 30.27 in 6.2 mi NE 8.1 mph - N/A   Unknown
9:25 PM 26.6 °F 18.2 °F 21.2 °F 80% 30.27 in 6.2 mi NE 8.1 mph - N/A   Unknown
9:55 PM 26.6 °F 18.2 °F 23.0 °F 86% 30.30 in 6.2 mi NE 8.1 mph - N/A   Unknown
10:00 PM 26 °F - 22 °F 80% 30.31 in 13 mi NE 6.7 mph - -  
10:25 PM 24.8 °F 16.9 °F 21.2 °F 86% 30.30 in 6.2 mi NE 6.9 mph - N/A   Unknown
10:33 PM 24.8 °F 16.1 °F 21.2 °F 86% 30.30 in 6.2 mi NE 8.1 mph - N/A   Unknown
10:55 PM 26.6 °F 18.2 °F 23.0 °F 86% 30.30 in 6.2 mi NE 8.1 mph - N/A   Partly Cloudy
11:25 PM 28.4 °F 19.1 °F 24.8 °F 86% 30.27 in 6.2 mi NE 10.4 mph - N/A   Unknown
11:55 PM 28.4 °F 20.4 °F 23.0 °F 80% 30.27 in 6.2 mi NE 8.1 mph - N/A   Unknown